KD4TJG Weather Reports


Display with metric or nautical units.
time (UTC)temp
F
wind
direction
speed
MPH
gust
MPH
rain 1hr
in
rain 24hr
in
rain mn
in
humidity
%
barometer
mb
20260507033038 65 178 5.0 10.0 0.04 0.07 0.07 87 1011.3
20260507033024 66 193 4.0 10.0 0.05 0.06 0.06 87 1013.4
20260507032520 65 152 4.0 12.0 0.04 0.07 0.07 87 1011.7
20260507032023 66 231 7.0 12.0 0.04 0.07 0.07 87 1012.9
20260507031951 66 193 3.0 10.0 0.10 0.06 0.06 87 1015.0
20260507031543 66 188 3.0 11.0 0.03 0.06 0.06 87 1013.1
20260507031022 66 200 3.0 11.0 0.02 0.05 0.05 87 1013.1
20260507031009 66 120 5.0 9.0 0.04 0.04 0.05 87 1015.0
20260507030522 66 181 5.0 12.0 0.02 0.05 0.05 87 1013.0
20260507030041 66 166 4.0 13.0 0.01 0.04 0.04 87 1012.8
20260507030021 67 193 4.0 11.0 0.01 0.04 0.04 87 1014.8
20260507025521 66 214 4.0 13.0 0.01 0.04 0.04 87 1012.8
20260507025034 67 248 5.0 13.0 0.01 0.04 0.04 87 1014.8
20260507025021 66 204 5.0 12.0 0.02 0.04 0.04 87 1012.8
20260507024541 66 234 6.0 14.0 0.01 0.03 0.03 87 1012.5
20260507024038 67 189 6.0 13.0 0.00 0.03 0.03 87 1014.2
20260507024023 67 247 5.0 14.0 0.01 0.03 0.03 87 1012.2
20260507023521 67 156 7.0 14.0 0.01 0.03 0.03 87 1012.3
20260507023053 67 154 4.0 11.0 0.00 0.03 0.03 87 1014.3
20260507023040 67 210 7.0 14.0 0.01 0.03 0.03 87 1012.2
20260507022521 67 198 3.0 9.0 0.01 0.03 0.03 87 1012.2
20260507022113 67 175 3.0 8.0 0.00 0.03 0.03 87 1014.2
20260507022022 67 177 5.0 9.0 0.01 0.03 0.03 87 1012.2
20260507021536 67 195 2.0 9.0 0.01 0.03 0.03 87 1012.1
20260507021138 68 262 3.0 7.0 0.00 0.03 0.03 87 1014.1
20260507021021 67 208 4.0 9.0 0.01 0.03 0.03 87 1012.1
20260507020523 67 219 4.0 9.0 0.01 0.03 0.03 87 1011.9
20260507020126 67 245 3.0 7.0 0.01 0.03 0.03 87 1014.0
20260507020035 67 195 3.0 9.0 0.02 0.03 0.03 87 1012.0
20260507015526 67 165 4.0 9.0 0.02 0.03 0.03 87 1011.9
20260507015112 67 212 2.0 5.0 0.00 0.02 0.02 87 1013.6
20260507015022 67 187 3.0 7.0 0.01 0.02 0.02 87 1011.5
20260507014547 67 174 2.0 7.0 0.01 0.02 0.02 87 1011.4
20260507014113 67 201 1.0 6.0 0.00 0.02 0.02 87 1013.5
20260507014022 67 249 3.0 7.0 0.02 0.02 0.02 87 1011.4
20260507013521 67 228 1.0 7.0 0.02 0.02 0.02 87 1011.1
20260507013048 67 110 2.0 6.0 0.00 0.02 0.02 87 1013.1
20260507013041 67 110 2.0 7.0 0.02 0.02 0.02 87 1011.0
20260507012526 67 188 2.0 4.0 0.02 0.02 0.02 87 1011.1
20260507012022 67 203 2.0 4.0 0.02 0.02 0.02 87 1011.4
20260507011551 67 218 1.0 4.0 0.02 0.02 0.02 86 1011.3
20260507011021 67 160 1.0 4.0 0.02 0.02 0.02 86 1011.2
20260507010521 67 170 2.0 4.0 0.01 0.01 0.01 86 1011.5
20260507010041 67 222 2.0 4.0 0.01 0.01 0.01 86 1011.6
20260507005919 68 185 1.0 5.0 0.01 0.01 0.01 86 1013.7
20260507005522 67 207 1.0 7.0 0.01 0.01 0.01 86 1011.6
20260507005023 68 0 2.0 7.0 0.01 0.01 0.01 85 1011.5
20260507004920 68 185 1.0 5.0 0.01 0.01 0.01 85 1013.6
20260507004540 68 260 1.0 6.0 0.00 0.00 0.00 85 1011.7
20260507004021 68 195 2.0 6.0 0.00 0.00 0.00 84 1011.6
20260507003522 68 249 1.0 4.0 0.00 0.00 0.00 84 1011.5
20260507003035 68 0 1.0 7.0 0.00 0.00 0.00 83 1011.5
20260507002521 69 167 2.0 7.0 0.00 0.00 0.00 83 1011.5
20260507002021 69 163 4.0 7.0 0.00 0.00 0.00 82 1011.5
20260507001556 69 187 2.0 6.0 0.00 0.00 0.00 82 1013.4
20260507001547 69 238 2.0 8.0 0.00 0.00 0.00 82 1011.4
20260507001021 69 191 3.0 8.0 0.00 0.00 0.00 81 1011.2
20260507000558 70 156 2.0 9.0 0.00 0.00 0.00 81 1013.3
20260507000525 69 183 3.0 7.0 0.00 0.00 0.00 81 1011.3
20260507000045 69 170 2.0 7.0 0.00 0.00 0.00 81 1011.5
20260506235546 70 206 3.0 9.0 0.00 0.00 0.00 81 1013.3
20260506235522 69 234 3.0 10.0 0.00 0.00 0.00 81 1011.3
20260506235021 69 166 3.0 10.0 0.00 0.00 0.00 80 1011.4
20260506234559 70 173 2.0 7.0 0.00 0.00 0.00 80 1013.1
20260506234545 69 166 4.0 10.0 0.00 0.00 0.00 80 1011.0
20260506234021 70 140 1.0 7.0 0.00 0.00 0.00 80 1011.1
20260506233528 70 193 3.0 6.0 0.00 0.00 0.00 80 1013.3
20260506233521 70 215 3.0 8.0 0.00 0.00 0.00 80 1011.3
20260506233041 70 268 3.0 8.0 0.00 0.00 0.00 79 1011.4
20260506232539 70 143 2.0 7.0 0.00 0.00 0.00 79 1012.9
20260506232521 70 148 3.0 6.0 0.00 0.00 0.00 79 1010.9
20260506232021 70 195 2.0 8.0 0.00 0.00 0.00 79 1011.3
20260506231540 70 237 3.0 8.0 0.00 0.00 0.00 79 1011.4
20260506231514 70 233 2.0 7.0 0.00 0.00 0.00 79 1013.5
20260506231021 70 187 1.0 6.0 0.00 0.00 0.00 79 1011.4
20260506230521 70 195 2.0 8.0 0.00 0.00 0.00 78 1011.4
20260506230450 71 180 3.0 10.0 0.00 0.00 0.00 78 1013.4
20260506230035 70 211 3.0 8.0 0.00 0.00 0.00 78 1011.6
20260506225522 70 204 4.0 11.0 0.00 0.00 0.00 78 1011.7
20260506225501 71 153 3.0 10.0 0.00 0.00 0.00 78 1013.7
20260506225021 70 212 5.0 11.0 0.00 0.00 0.00 77 1011.7
20260506224543 71 253 2.0 10.0 0.00 0.00 0.00 77 1011.8
20260506224500 71 250 3.0 9.0 0.00 0.00 0.00 77 1013.8
20260506224021 71 201 3.0 12.0 0.00 0.00 0.00 77 1011.9
20260506223521 71 219 5.0 13.0 0.00 0.00 0.00 77 1012.0
20260506223511 71 199 4.0 12.0 0.00 0.00 0.00 77 1014.0
20260506223041 71 218 4.0 13.0 0.00 0.00 0.00 77 1012.1
20260506222522 71 157 4.0 10.0 0.00 0.00 0.00 77 1012.0
20260506222022 71 181 5.0 16.0 0.00 0.00 0.00 76 1011.9
20260506221542 71 210 8.0 16.0 0.00 0.00 0.00 76 1011.9
20260506221021 71 211 5.0 15.0 0.00 0.00 0.00 76 1011.9
20260506220521 71 176 8.0 15.0 0.00 0.00 0.00 76 1012.1
20260506220051 71 223 4.0 15.0 0.00 0.00 0.00 76 1011.8
20260506215521 71 245 7.0 15.0 0.00 0.00 0.00 76 1011.9
20260506215200 72 239 4.0 9.0 0.00 0.00 0.00 76 1013.9
20260506215021 71 207 5.0 10.0 0.00 0.00 0.00 76 1011.9
20260506214544 71 220 4.0 10.0 0.00 0.00 0.00 75 1011.9
20260506214213 72 209 5.0 14.0 0.00 0.00 0.00 75 1013.8
20260506214020 71 197 4.0 15.0 0.00 0.00 0.00 76 1011.8
20260506213521 71 181 7.0 15.0 0.00 0.00 0.00 75 1011.4
20260506213141 72 177 6.0 14.0 0.00 0.00 0.00 75 1013.3
20260506213035 71 209 7.0 15.0 0.00 0.00 0.00 75 1011.4
20260506212525 71 162 5.0 15.0 0.00 0.00 0.00 75 1011.1
20260506212154 72 193 6.0 15.0 0.00 0.00 0.00 74 1013.0
20260506212023 72 168 6.0 15.0 0.00 0.00 0.00 74 1011.0
20260506211544 72 226 6.0 15.0 0.00 0.00 0.00 74 1010.9
20260506211133 72 214 7.0 15.0 0.00 0.00 0.00 74 1013.3
20260506211023 72 179 6.0 16.0 0.00 0.00 0.00 74 1011.3
20260506210525 72 203 8.0 16.0 0.00 0.00 0.00 73 1011.4
20260506210042 72 164 7.0 15.0 0.00 0.00 0.00 73 1011.6
20260506205521 72 191 7.0 14.0 0.00 0.00 0.00 74 1011.4
20260506205034 72 224 8.0 14.0 0.00 0.00 0.00 73 1013.5
20260506205021 72 218 8.0 19.0 0.00 0.00 0.00 73 1011.5
20260506204540 72 173 9.0 19.0 0.00 0.00 0.00 74 1011.6
20260506204037 72 183 4.0 13.0 0.00 0.00 0.00 75 1013.6
20260506204021 72 182 5.0 16.0 0.00 0.00 0.00 75 1011.6
20260506203521 71 203 5.0 16.0 0.00 0.00 0.00 74 1011.6
20260506203117 72 139 8.0 15.0 0.00 0.00 0.00 74 1011.5
20260506202521 72 238 6.0 15.0 0.00 0.00 0.00 73 1011.8
20260506202021 72 173 6.0 15.0 0.00 0.00 0.00 73 1011.8
20260506201902 72 249 6.0 14.0 0.00 0.00 0.00 73 1013.8
20260506201541 72 205 6.0 15.0 0.00 0.00 0.00 73 1011.8
20260506201022 72 187 8.0 14.0 0.00 0.00 0.00 72 1011.9
20260506200907 73 188 6.0 13.0 0.00 0.00 0.00 73 1014.0
20260506200522 72 256 4.0 13.0 0.00 0.00 0.00 73 1011.8
20260506200047 72 189 6.0 13.0 0.00 0.00 0.00 74 1011.8
20260506195915 72 178 5.0 13.0 0.00 0.00 0.00 74 1013.8
20260506195521 71 185 5.0 15.0 0.00 0.00 0.00 74 1011.6
20260506195021 71 239 6.0 15.0 0.00 0.00 0.00 74 1011.6
20260506194938 71 195 6.0 14.0 0.00 0.00 0.00 74 1013.7
20260506194536 71 164 5.0 18.0 0.00 0.00 0.00 74 1011.8
20260506194020 70 211 7.0 18.0 0.00 0.00 0.00 74 1011.7
20260506193954 71 184 8.0 16.0 0.00 0.00 0.00 73 1013.7
20260506193521 71 152 9.0 18.0 0.00 0.00 0.00 73 1011.8
20260506193035 71 219 9.0 18.0 0.00 0.00 0.00 73 1011.8
20260506192922 71 212 9.0 18.0 0.00 0.00 0.00 74 1013.7
20260506192521 70 182 10.0 18.0 0.00 0.00 0.00 73 1011.5
20260506192022 69 127 7.0 19.0 0.00 0.00 0.00 74 1011.6
20260506191936 70 190 8.0 18.0 0.00 0.00 0.00 73 1013.6
20260506191550 69 169 10.0 19.0 0.00 0.00 0.00 73 1011.7
20260506191021 70 131 5.0 19.0 0.00 0.00 0.00 73 1011.6
20260506190933 70 176 8.0 17.0 0.00 0.00 0.00 74 1013.6
20260506190521 70 237 9.0 16.0 0.00 0.00 0.00 73 1011.7
20260506190048 70 196 8.0 15.0 0.00 0.00 0.00 72 1011.7
20260506185912 71 204 7.0 15.0 0.00 0.00 0.00 72 1013.6
20260506185521 71 158 9.0 17.0 0.00 0.00 0.00 71 1011.5
20260506185021 71 154 5.0 17.0 0.00 0.00 0.00 73 1011.5
20260506184847 71 206 8.0 17.0 0.00 0.00 0.00 72 1013.7
20260506184551 71 218 8.0 20.0 0.00 0.00 0.00 72 1011.7
20260506184023 70 212 11.0 20.0 0.00 0.00 0.00 73 1011.7
20260506183903 71 172 7.0 17.0 0.00 0.00 0.00 73 1013.8
20260506183521 70 169 6.0 19.0 0.00 0.00 0.00 76 1011.7
20260506183035 69 212 9.0 19.0 0.00 0.00 0.00 77 1011.8
20260506182839 69 199 6.0 16.0 0.00 0.00 0.00 78 1014.0
20260506182521 68 174 7.0 17.0 0.00 0.00 0.00 80 1011.9
20260506182026 67 180 5.0 11.0 0.00 0.00 0.00 81 1011.9
20260506181850 68 178 3.0 9.0 0.00 0.00 0.00 81 1013.9
20260506181542 67 119 5.0 11.0 0.00 0.00 0.00 82 1012.1
20260506181022 67 183 3.0 10.0 0.00 0.00 0.00 81 1012.4
20260506180900 67 225 4.0 10.0 0.00 0.00 0.00 81 1014.4
20260506180522 67 176 5.0 11.0 0.00 0.00 0.00 81 1012.6
20260506180045 67 211 5.0 12.0 0.00 0.00 0.00 81 1012.7
20260506175850 67 174 4.0 14.0 0.00 0.00 0.00 81 1015.0
20260506175521 67 225 3.0 12.0 0.00 0.00 0.00 81 1013.2
20260506175021 67 187 5.0 15.0 0.00 0.00 0.00 80 1013.3
20260506174844 67 198 5.0 14.0 0.00 0.00 0.00 80 1015.5
20260506174541 67 193 6.0 15.0 0.00 0.00 0.00 79 1013.5
20260506174021 67 132 5.0 14.0 0.00 0.00 0.00 78 1013.5
20260506173823 68 173 7.0 11.0 0.00 0.00 0.00 78 1015.7
20260506173521 67 201 7.0 14.0 0.00 0.00 0.00 77 1013.7
20260506173051 68 57 7.0 14.0 0.00 0.00 0.00 77 1013.9
20260506172828 68 197 4.0 10.0 0.00 0.00 0.00 77 1015.9
20260506172521 68 208 6.0 11.0 0.00 0.00 0.00 76 1013.8
20260506172021 68 159 4.0 13.0 0.00 0.00 0.00 76 1013.8
20260506171803 68 195 5.0 12.0 0.00 0.00 0.00 76 1015.8
20260506171539 68 228 6.0 13.0 0.00 0.00 0.00 76 1013.8
20260506171021 68 153 5.0 13.0 0.00 0.00 0.00 76 1013.9
20260506170728 68 216 4.0 12.0 0.00 0.00 0.00 76 1015.9
20260506170521 68 156 6.0 14.0 0.00 0.00 0.00 76 1013.9
20260506170036 67 216 5.0 14.0 0.00 0.00 0.00 76 1014.0
20260506165743 68 254 4.0 11.0 0.00 0.00 0.00 76 1016.0
20260506165522 67 211 6.0 12.0 0.00 0.00 0.00 76 1013.9
20260506165021 67 220 4.0 9.0 0.00 0.00 0.00 77 1013.8
20260506164808 68 183 3.0 8.0 0.00 0.00 0.00 78 1015.8
20260506164536 67 194 3.0 9.0 0.00 0.00 0.00 77 1013.8
20260506164020 67 220 3.0 10.0 0.00 0.00 0.00 78 1013.9
20260506163759 67 195 4.0 13.0 0.00 0.00 0.00 78 1015.9
20260506163522 67 194 6.0 15.0 0.00 0.00 0.00 78 1013.8
20260506163057 67 195 5.0 15.0 0.00 0.00 0.00 78 1013.8
20260506162740 67 183 4.0 13.0 0.00 0.00 0.00 78 1015.8
20260506162523 66 170 3.0 10.0 0.00 0.00 0.00 78 1013.8
20260506162020 66 181 5.0 10.0 0.00 0.00 0.00 78 1013.7
20260506161712 67 177 3.0 13.0 0.00 0.00 0.00 78 1015.7
20260506161540 66 189 3.0 10.0 0.00 0.00 0.00 78 1013.8
20260506161021 66 176 4.0 14.0 0.00 0.00 0.00 77 1013.7
20260506160521 67 225 6.0 14.0 0.00 0.00 0.00 75 1013.8
20260506160042 67 179 7.0 14.0 0.00 0.00 0.00 73 1013.8
20260506155549 68 232 3.0 10.0 0.00 0.00 0.00 73 1015.7
20260506155522 67 246 2.0 10.0 0.00 0.00 0.00 73 1013.7
20260506155021 67 195 3.0 10.0 0.00 0.00 0.00 73 1013.6
20260506154543 67 210 4.0 11.0 0.00 0.00 0.00 72 1013.4
20260506154536 68 181 4.0 10.0 0.00 0.00 0.00 72 1015.4
20260506154022 67 165 4.0 11.0 0.00 0.00 0.00 72 1013.0
20260506153521 67 198 3.0 8.0 0.00 0.00 0.00 72 1013.1
20260506153034 67 158 2.0 11.0 0.00 0.00 0.00 73 1013.2
20260506152521 67 152 5.0 12.0 0.00 0.00 0.00 73 1013.3
20260506152504 67 226 6.0 12.0 0.00 0.00 0.00 73 1015.3
20260506152021 67 188 5.0 13.0 0.00 0.00 0.00 73 1013.4
20260506151543 67 177 8.0 13.0 0.00 0.00 0.00 73 1013.4
20260506151020 66 141 5.0 12.0 0.00 0.00 0.00 73 1013.4
20260506150522 66 152 6.0 14.0 0.00 0.00 0.00 73 1013.4
20260506150332 67 146 4.0 12.0 0.00 0.00 0.00 73 1015.5
20260506150041 66 135 4.0 14.0 0.00 0.00 0.00 73 1013.4
20260506145520 66 193 4.0 9.0 0.00 0.00 0.00 73 1013.4
20260506145325 66 196 4.0 10.0 0.00 0.00 0.00 73 1015.3
20260506145018 66 203 4.0 12.0 0.00 0.00 0.00 73 1013.2
20260506144540 66 161 5.0 12.0 0.00 0.00 0.00 73 1013.1
20260506144256 66 183 5.0 12.0 0.00 0.00 0.00 73 1015.2
20260506144021 66 189 4.0 13.0 0.00 0.00 0.00 74 1013.3
20260506143521 66 126 6.0 13.0 0.00 0.00 0.00 73 1013.3
20260506143040 66 216 6.0 13.0 0.00 0.00 0.00 73 1013.4
20260506142524 65 145 6.0 13.0 0.00 0.00 0.00 73 1013.3
20260506142148 66 225 6.0 11.0 0.00 0.00 0.00 73 1015.3
20260506142024 65 234 5.0 13.0 0.00 0.00 0.00 73 1013.2
20260506141535 65 175 7.0 13.0 0.00 0.00 0.00 73 1013.2
20260506141209 66 268 6.0 13.0 0.00 0.00 0.00 73 1015.3
20260506141023 65 203 7.0 14.0 0.00 0.00 0.00 73 1013.3
20260506140521 65 226 5.0 14.0 0.00 0.00 0.00 73 1013.1
20260506140224 66 164 5.0 13.0 0.00 0.00 0.00 73 1015.1
20260506140044 65 178 3.0 13.0 0.00 0.00 0.00 73 1013.1
20260506135524 65 183 5.0 13.0 0.00 0.00 0.00 73 1013.1
20260506135219 65 176 5.0 11.0 0.00 0.00 0.00 73 1014.9
20260506135020 65 178 6.0 13.0 0.00 0.00 0.00 73 1013.0
20260506134542 65 154 5.0 12.0 0.00 0.00 0.00 74 1013.1
20260506134226 65 176 5.0 11.0 0.00 0.00 0.00 73 1015.2
20260506134021 65 185 5.0 12.0 0.00 0.00 0.00 74 1013.2
20260506133522 64 191 5.0 12.0 0.00 0.00 0.00 74 1013.3
20260506133241 65 245 5.0 10.0 0.00 0.00 0.00 74 1015.3
20260506133044 64 193 4.0 11.0 0.00 0.00 0.00 74 1013.2
20260506132522 64 166 6.0 11.0 0.00 0.00 0.00 74 1013.4
20260506132021 64 193 4.0 13.0 0.00 0.00 0.00 74 1013.3
20260506131540 64 205 7.0 17.0 0.00 0.00 0.00 74 1013.3
20260506131021 64 146 6.0 17.0 0.00 0.00 0.00 75 1012.9
20260506130520 64 160 7.0 16.0 0.00 0.00 0.00 75 1012.9
20260506130041 63 188 5.0 16.0 0.00 0.00 0.00 75 1012.7
20260506125959 64 167 6.0 12.0 0.00 0.00 0.00 75 1014.6
20260506125521 63 135 5.0 13.0 0.00 0.00 0.00 75 1012.9
20260506125018 63 185 4.0 13.0 0.00 0.00 0.00 75 1013.0
20260506124934 64 140 4.0 12.0 0.00 0.00 0.00 75 1015.2
20260506124535 63 179 6.0 13.0 0.00 0.00 0.00 76 1013.4
20260506124022 63 176 5.0 13.0 0.00 0.00 0.00 76 1013.5
20260506123917 63 198 5.0 11.0 0.00 0.00 0.00 76 1015.5
20260506123521 63 191 7.0 13.0 0.00 0.00 0.00 76 1013.5
20260506123036 63 190 4.0 14.0 0.00 0.00 0.00 76 1013.5
20260506122941 63 166 4.0 10.0 0.00 0.00 0.00 76 1015.5
20260506122518 62 216 6.0 14.0 0.00 0.00 0.00 76 1013.4
20260506122017 62 207 5.0 13.0 0.00 0.00 0.00 77 1013.5
20260506121547 62 191 6.0 18.0 0.00 0.00 0.00 77 1013.6
20260506121018 62 185 8.0 18.0 0.00 0.00 0.00 77 1013.5
20260506120755 63 188 6.0 15.0 0.00 0.00 0.00 77 1015.5
20260506120521 62 168 9.0 15.0 0.00 0.00 0.00 77 1013.4
20260506120042 62 172 4.0 14.0 0.00 0.00 0.00 77 1013.3
20260506115820 62 161 5.0 11.0 0.00 0.00 0.00 77 1015.3
20260506115520 62 249 6.0 14.0 0.00 0.00 0.00 77 1013.4
20260506115021 62 154 4.0 12.0 0.00 0.00 0.00 77 1013.3
20260506114841 62 155 4.0 11.0 0.00 0.00 0.00 77 1015.2
20260506114534 62 130 5.0 14.0 0.00 0.00 0.00 77 1013.1
20260506114023 62 201 3.0 14.0 0.00 0.00 0.00 77 1013.1
20260506113851 62 204 6.0 11.0 0.00 0.00 0.00 77 1015.1
20260506113518 62 148 4.0 12.0 0.00 0.00 0.00 77 1013.0
20260506113034 62 187 6.0 12.0 0.00 0.00 0.00 77 1013.1
20260506112818 62 173 4.0 9.0 0.00 0.00 0.00 77 1015.0
20260506112523 62 178 3.0 12.0 0.00 0.00 0.00 77 1013.1
20260506112025 62 214 7.0 12.0 0.00 0.00 0.00 78 1012.9
20260506111750 62 169 4.0 12.0 0.00 0.00 0.00 78 1015.1
20260506111543 61 224 6.0 14.0 0.00 0.00 0.00 78 1013.1
20260506111019 61 142 4.0 14.0 0.00 0.00 0.00 78 1012.8
20260506110750 62 191 4.0 12.0 0.00 0.00 0.00 78 1015.0
20260506110518 61 210 5.0 11.0 0.00 0.00 0.00 78 1012.9
20260506110042 61 139 2.0 10.0 0.00 0.00 0.00 78 1012.7
20260506105811 62 209 3.0 8.0 0.00 0.00 0.00 78 1014.6
20260506105521 61 218 3.0 10.0 0.00 0.00 0.00 78 1012.7
20260506105021 61 160 3.0 10.0 0.00 0.00 0.00 78 1012.8
20260506104819 62 154 3.0 8.0 0.00 0.00 0.00 78 1014.6
20260506104541 61 178 3.0 10.0 0.00 0.00 0.00 78 1012.6
20260506104022 61 177 4.0 13.0 0.00 0.00 0.00 78 1012.3
20260506103801 62 110 5.0 11.0 0.00 0.00 0.00 78 1014.4
20260506103518 61 152 5.0 14.0 0.00 0.00 0.00 77 1012.3
20260506103041 62 178 7.0 14.0 0.00 0.00 0.00 77 1012.3
20260506102734 62 157 5.0 11.0 0.00 0.00 0.00 77 1014.6
20260506102518 62 174 6.0 14.0 0.00 0.00 0.00 77 1012.6
20260506102021 62 181 7.0 16.0 0.00 0.00 0.00 77 1012.5
20260506101732 62 154 4.0 11.0 0.00 0.00 0.00 77 1014.6
20260506101536 62 149 3.0 16.0 0.00 0.00 0.00 77 1012.6
20260506101023 62 131 7.0 13.0 0.00 0.00 0.00 77 1012.3
20260506100522 62 168 3.0 14.0 0.00 0.00 0.00 77 1012.4
20260506100043 62 186 6.0 14.0 0.00 0.00 0.00 77 1012.2
20260506095628 63 168 4.0 13.0 0.00 0.00 0.00 77 1014.4
20260506095518 62 207 6.0 17.0 0.00 0.00 0.00 77 1012.3
20260506095021 62 198 3.0 17.0 0.00 0.00 0.00 77 1012.4
20260506094542 62 160 3.0 12.0 0.00 0.00 0.00 77 1012.4
20260506094021 62 206 6.0 12.0 0.00 0.00 0.00 77 1012.4
20260506093521 62 178 4.0 12.0 0.00 0.00 0.00 77 1012.4
20260506093419 62 134 4.0 8.0 0.00 0.00 0.00 77 1014.6
20260506093044 62 146 3.0 10.0 0.00 0.00 0.00 77 1012.5
20260506092521 62 206 5.0 12.0 0.00 0.00 0.00 77 1012.7
20260506092437 63 164 4.0 11.0 0.00 0.00 0.00 77 1014.7
20260506092018 62 148 5.0 13.0 0.00 0.00 0.00 77 1012.5
20260506091540 62 200 6.0 13.0 0.00 0.00 0.00 77 1012.5
20260506091424 63 129 4.0 11.0 0.00 0.00 0.00 77 1014.6
20260506091023 62 172 3.0 11.0 0.00 0.00 0.00 76 1012.6
20260506090518 62 201 5.0 15.0 0.00 0.00 0.00 76 1012.7
20260506090417 63 177 5.0 14.0 0.00 0.00 0.00 76 1014.7
20260506090044 62 184 5.0 15.0 0.00 0.00 0.00 76 1012.7
20260506085519 62 206 7.0 15.0 0.00 0.00 0.00 76 1012.7
20260506085435 63 187 5.0 14.0 0.00 0.00 0.00 76 1014.7
20260506085018 62 194 6.0 15.0 0.00 0.00 0.00 76 1012.9
20260506084543 62 196 5.0 12.0 0.00 0.00 0.00 76 1012.9
20260506084410 63 62 4.0 11.0 0.00 0.00 0.00 76 1014.9
20260506084018 63 139 4.0 12.0 0.00 0.00 0.00 76 1013.0
20260506083523 63 156 6.0 12.0 0.00 0.00 0.00 76 1013.0
20260506083339 63 184 5.0 12.0 0.00 0.00 0.00 76 1014.9
20260506083038 63 177 4.0 14.0 0.00 0.00 0.00 75 1012.9
20260506082523 63 189 4.0 14.0 0.00 0.00 0.00 75 1013.0
20260506082346 63 203 4.0 12.0 0.00 0.00 0.00 75 1014.9
20260506082022 63 195 5.0 14.0 0.00 0.00 0.00 75 1013.0
20260506081543 63 145 3.0 12.0 0.00 0.00 0.00 75 1013.1
20260506081330 64 172 4.0 9.0 0.00 0.00 0.00 75 1015.1
20260506081023 63 156 4.0 13.0 0.00 0.00 0.00 75 1013.1
20260506080523 63 162 3.0 13.0 0.00 0.00 0.00 75 1013.2
20260506080306 64 168 4.0 11.0 0.00 0.00 0.00 75 1015.2
20260506073526 63 204 4.0 10.0 0.00 0.00 0.00 75 1013.1
20260506073041 63 160 3.0 12.0 0.00 0.00 0.00 75 1012.7
20260506072522 63 156 4.0 12.0 0.00 0.00 0.00 75 1012.8
20260506072123 64 158 6.0 11.0 0.00 0.00 0.00 74 1014.9
20260506072023 63 126 7.0 15.0 0.00 0.00 0.00 74 1012.8
20260506071547 63 186 7.0 15.0 0.00 0.00 0.00 74 1012.9
20260506071101 64 176 4.0 12.0 0.00 0.00 0.00 74 1014.9
20260506071022 63 111 5.0 15.0 0.00 0.00 0.00 74 1012.9
20260506070524 63 170 6.0 14.0 0.00 0.00 0.00 74 1012.9
20260506062022 64 132 5.0 12.0 0.00 0.00 0.00 71 1013.3
20260506062000 64 153 4.0 10.0 0.00 0.00 0.00 71 1015.4
20260506061543 64 202 4.0 12.0 0.00 0.00 0.00 71 1013.4
20260506061026 64 189 4.0 13.0 0.00 0.00 0.00 70 1013.4
20260506061024 64 190 4.0 13.0 0.00 0.00 0.00 70 1015.4
20260506060523 64 195 4.0 14.0 0.00 0.00 0.00 70 1013.3
20260506051020 65 186 6.0 11.0 0.00 0.00 0.00 65 1013.4
20260506050737 66 135 4.0 12.0 0.00 0.00 0.00 65 1015.4
20260506050521 65 132 5.0 13.0 0.00 0.00 0.00 64 1013.4
20260506050103 65 178 6.0 13.0 0.00 0.00 0.00 64 1013.5
20260506045021 66 225 6.0 12.0 0.00 0.00 0.00 63 1013.7
20260506044546 66 207 5.0 11.0 0.00 0.00 0.00 62 1015.6
20260506044544 66 187 5.0 13.0 0.00 0.00 0.00 62 1013.6
20260506044021 66 180 6.0 14.0 0.00 0.00 0.00 62 1013.6
20260506043606 67 120 6.0 11.0 0.00 0.00 0.00 62 1015.5
20260506043521 66 174 4.0 14.0 0.00 0.00 0.00 62 1013.5
20260506043040 66 136 7.0 13.0 0.00 0.00 0.00 61 1013.6
20260506042617 67 171 4.0 12.0 0.00 0.00 0.00 60 1015.6
20260506042520 66 199 5.0 10.0 0.00 0.00 0.00 60 1013.6
20260506042018 67 181 6.0 11.0 0.00 0.00 0.00 59 1013.7
20260506041550 67 174 3.0 16.0 0.00 0.00 0.00 59 1013.7
20260506041018 67 151 7.0 16.0 0.00 0.00 0.00 58 1013.6
20260506040552 68 194 5.0 13.0 0.00 0.00 0.00 57 1015.6
20260506040518 67 156 5.0 14.0 0.00 0.00 0.00 57 1013.6
20260506040035 67 168 6.0 14.0 0.00 0.00 0.00 57 1013.5
20260506035531 68 200 4.0 12.0 0.00 0.00 0.00 56 1015.6
20260506035521 67 195 3.0 11.0 0.00 0.00 0.00 56 1013.6
20260506035021 68 131 5.0 13.0 0.00 0.00 0.00 55 1013.5
20260506034550 68 158 6.0 13.0 0.00 0.00 0.00 55 1013.4
20260506034535 68 168 5.0 12.0 0.00 0.00 0.00 55 1015.4
20260506034025 68 168 5.0 13.0 0.00 0.00 0.00 55 1013.3
20260506033530 68 174 4.0 10.0 0.00 0.00 0.00 55 1015.2
20260506033524 68 202 4.0 12.0 0.00 0.00 0.00 55 1013.2